<?xml version="1.0" encoding="UTF-8"?>
<gpx
version="1.1"
creator="Kashmir3D 9.350 - http://www.kashmir3d.com"
xmlns:xsi="http://www.w3.org/2001/XMLSchema-instance"
xmlns="http://www.topografix.com/GPX/1/1"
xmlns:kashmir3d="http://www.kashmir3d.com/namespace/kashmir3d"
xsi:schemaLocation="http://www.topografix.com/GPX/1/1 http://www.topografix.com/GPX/1/1/gpx.xsd
	http://www.kashmir3d.com/namespace/kashmir3d http://www.kashmir3d.com/namespace/kashmir3d.xsd">
<trk>
 <name>越前岳.KML(越前岳)</name>
 <number>1</number>
 <extensions>
 <kashmir3d:line_color>0000ff</kashmir3d:line_color>
 <kashmir3d:line_size>3</kashmir3d:line_size>
 <kashmir3d:line_style>1</kashmir3d:line_style>
 <kashmir3d:icon>901001</kashmir3d:icon>
 </extensions>
<trkseg>
<trkpt lat="35.256157" lon="138.783723">
 <ele>869</ele>
 <time>2020-03-22T07:58:02Z</time>
</trkpt>
<trkpt lat="35.255985" lon="138.783831">
 <ele>870.7</ele>
 <time>2020-03-22T07:58:02Z</time>
</trkpt>
<trkpt lat="35.255745" lon="138.784088">
 <ele>874.9</ele>
 <time>2020-03-22T07:58:02Z</time>
</trkpt>
<trkpt lat="35.255556" lon="138.784195">
 <ele>877.7</ele>
 <time>2020-03-22T07:58:02Z</time>
</trkpt>
<trkpt lat="35.255427" lon="138.784238">
 <ele>879.6</ele>
 <time>2020-03-22T07:58:03Z</time>
</trkpt>
<trkpt lat="35.255238" lon="138.784442">
 <ele>885.3</ele>
 <time>2020-03-22T07:58:03Z</time>
</trkpt>
<trkpt lat="35.254998" lon="138.784614">
 <ele>893.5</ele>
 <time>2020-03-22T07:58:03Z</time>
</trkpt>
<trkpt lat="35.254955" lon="138.784732">
 <ele>898.9</ele>
 <time>2020-03-22T07:58:03Z</time>
</trkpt>
<trkpt lat="35.254723" lon="138.784914">
 <ele>908.1</ele>
 <time>2020-03-22T07:58:03Z</time>
</trkpt>
<trkpt lat="35.254337" lon="138.785236">
 <ele>923.3</ele>
 <time>2020-03-22T07:58:03Z</time>
</trkpt>
<trkpt lat="35.254131" lon="138.785408">
 <ele>933.6</ele>
 <time>2020-03-22T07:58:03Z</time>
</trkpt>
<trkpt lat="35.253968" lon="138.785536">
 <ele>940.6</ele>
 <time>2020-03-22T07:58:03Z</time>
</trkpt>
<trkpt lat="35.253754" lon="138.785654">
 <ele>949.5</ele>
 <time>2020-03-22T07:58:04Z</time>
</trkpt>
<trkpt lat="35.253651" lon="138.785708">
 <ele>952.6</ele>
 <time>2020-03-22T07:58:04Z</time>
</trkpt>
<trkpt lat="35.253548" lon="138.785687">
 <ele>956.2</ele>
 <time>2020-03-22T07:58:04Z</time>
</trkpt>
<trkpt lat="35.253453" lon="138.785697">
 <ele>961.5</ele>
 <time>2020-03-22T07:58:04Z</time>
</trkpt>
<trkpt lat="35.253290" lon="138.785612">
 <ele>965.7</ele>
 <time>2020-03-22T07:58:04Z</time>
</trkpt>
<trkpt lat="35.253161" lon="138.785579">
 <ele>968.1</ele>
 <time>2020-03-22T07:58:04Z</time>
</trkpt>
<trkpt lat="35.253041" lon="138.785687">
 <ele>972.9</ele>
 <time>2020-03-22T07:58:05Z</time>
</trkpt>
<trkpt lat="35.252964" lon="138.785848">
 <ele>976.7</ele>
 <time>2020-03-22T07:58:05Z</time>
</trkpt>
<trkpt lat="35.252869" lon="138.785966">
 <ele>979</ele>
 <time>2020-03-22T07:58:05Z</time>
</trkpt>
<trkpt lat="35.252724" lon="138.786019">
 <ele>980.7</ele>
 <time>2020-03-22T07:58:05Z</time>
</trkpt>
<trkpt lat="35.252724" lon="138.786073">
 <ele>980.8</ele>
 <time>2020-03-22T07:58:05Z</time>
</trkpt>
<trkpt lat="35.252689" lon="138.786191">
 <ele>983.9</ele>
 <time>2020-03-22T07:58:05Z</time>
</trkpt>
<trkpt lat="35.252603" lon="138.786309">
 <ele>985.5</ele>
 <time>2020-03-22T07:58:05Z</time>
</trkpt>
<trkpt lat="35.252509" lon="138.786373">
 <ele>986.4</ele>
 <time>2020-03-22T07:58:06Z</time>
</trkpt>
<trkpt lat="35.252466" lon="138.786502">
 <ele>987.4</ele>
 <time>2020-03-22T07:58:06Z</time>
</trkpt>
<trkpt lat="35.252466" lon="138.786631">
 <ele>988.7</ele>
 <time>2020-03-22T07:58:06Z</time>
</trkpt>
<trkpt lat="35.252457" lon="138.786781">
 <ele>994.1</ele>
 <time>2020-03-22T07:58:06Z</time>
</trkpt>
<trkpt lat="35.252457" lon="138.786942">
 <ele>998.4</ele>
 <time>2020-03-22T07:58:06Z</time>
</trkpt>
<trkpt lat="35.252354" lon="138.787081">
 <ele>1001.2</ele>
 <time>2020-03-22T07:58:06Z</time>
</trkpt>
<trkpt lat="35.252251" lon="138.787146">
 <ele>1002.8</ele>
 <time>2020-03-22T07:58:07Z</time>
</trkpt>
<trkpt lat="35.252071" lon="138.787135">
 <ele>1004.6</ele>
 <time>2020-03-22T07:58:07Z</time>
</trkpt>
<trkpt lat="35.251891" lon="138.787135">
 <ele>1009.3</ele>
 <time>2020-03-22T07:58:07Z</time>
</trkpt>
<trkpt lat="35.251754" lon="138.787146">
 <ele>1011.6</ele>
 <time>2020-03-22T07:58:07Z</time>
</trkpt>
<trkpt lat="35.251642" lon="138.787274">
 <ele>1012.5</ele>
 <time>2020-03-22T07:58:07Z</time>
</trkpt>
<trkpt lat="35.251633" lon="138.787414">
 <ele>1013.6</ele>
 <time>2020-03-22T07:58:07Z</time>
</trkpt>
<trkpt lat="35.251616" lon="138.787564">
 <ele>1014.5</ele>
 <time>2020-03-22T07:58:07Z</time>
</trkpt>
<trkpt lat="35.251599" lon="138.787661">
 <ele>1015.6</ele>
 <time>2020-03-22T07:58:08Z</time>
</trkpt>
<trkpt lat="35.251548" lon="138.787768">
 <ele>1018.5</ele>
 <time>2020-03-22T07:58:08Z</time>
</trkpt>
<trkpt lat="35.251530" lon="138.787940">
 <ele>1022.3</ele>
 <time>2020-03-22T07:58:08Z</time>
</trkpt>
<trkpt lat="35.251496" lon="138.788133">
 <ele>1026.1</ele>
 <time>2020-03-22T07:58:08Z</time>
</trkpt>
<trkpt lat="35.251462" lon="138.788347">
 <ele>1030.6</ele>
 <time>2020-03-22T07:58:08Z</time>
</trkpt>
<trkpt lat="35.251385" lon="138.788519">
 <ele>1034.4</ele>
 <time>2020-03-22T07:58:08Z</time>
</trkpt>
<trkpt lat="35.251247" lon="138.788701">
 <ele>1037.6</ele>
 <time>2020-03-22T07:58:08Z</time>
</trkpt>
<trkpt lat="35.251101" lon="138.788766">
 <ele>1038.6</ele>
 <time>2020-03-22T07:58:09Z</time>
</trkpt>
<trkpt lat="35.250930" lon="138.788852">
 <ele>1040.5</ele>
 <time>2020-03-22T07:58:09Z</time>
</trkpt>
<trkpt lat="35.250784" lon="138.788905">
 <ele>1043.4</ele>
 <time>2020-03-22T07:58:09Z</time>
</trkpt>
<trkpt lat="35.250689" lon="138.788948">
 <ele>1044.4</ele>
 <time>2020-03-22T07:58:09Z</time>
</trkpt>
<trkpt lat="35.250501" lon="138.789109">
 <ele>1045.8</ele>
 <time>2020-03-22T07:58:09Z</time>
</trkpt>
<trkpt lat="35.250303" lon="138.789206">
 <ele>1048.7</ele>
 <time>2020-03-22T07:58:09Z</time>
</trkpt>
<trkpt lat="35.250140" lon="138.789238">
 <ele>1050.2</ele>
 <time>2020-03-22T07:58:09Z</time>
</trkpt>
<trkpt lat="35.249968" lon="138.789206">
 <ele>1051.9</ele>
 <time>2020-03-22T07:58:09Z</time>
</trkpt>
<trkpt lat="35.249814" lon="138.789163">
 <ele>1054.7</ele>
 <time>2020-03-22T07:58:10Z</time>
</trkpt>
<trkpt lat="35.249531" lon="138.788991">
 <ele>1062.6</ele>
 <time>2020-03-22T07:58:10Z</time>
</trkpt>
<trkpt lat="35.249368" lon="138.788884">
 <ele>1067.5</ele>
 <time>2020-03-22T07:58:10Z</time>
</trkpt>
<trkpt lat="35.249290" lon="138.788841">
 <ele>1069.3</ele>
 <time>2020-03-22T07:58:10Z</time>
</trkpt>
<trkpt lat="35.249007" lon="138.788841">
 <ele>1073.3</ele>
 <time>2020-03-22T07:58:10Z</time>
</trkpt>
<trkpt lat="35.248672" lon="138.788895">
 <ele>1079.7</ele>
 <time>2020-03-22T07:58:10Z</time>
</trkpt>
<trkpt lat="35.248269" lon="138.788970">
 <ele>1090.8</ele>
 <time>2020-03-22T07:58:10Z</time>
</trkpt>
<trkpt lat="35.248046" lon="138.789002">
 <ele>1095.6</ele>
 <time>2020-03-22T07:58:11Z</time>
</trkpt>
<trkpt lat="35.247848" lon="138.789045">
 <ele>1098.6</ele>
 <time>2020-03-22T07:58:11Z</time>
</trkpt>
<trkpt lat="35.247685" lon="138.789023">
 <ele>1100</ele>
 <time>2020-03-22T07:58:11Z</time>
</trkpt>
<trkpt lat="35.247565" lon="138.789002">
 <ele>1099.8</ele>
 <time>2020-03-22T07:58:11Z</time>
</trkpt>
<trkpt lat="35.247436" lon="138.789013">
 <ele>1099.2</ele>
 <time>2020-03-22T07:58:11Z</time>
</trkpt>
<trkpt lat="35.247248" lon="138.789013">
 <ele>1099.7</ele>
 <time>2020-03-22T07:58:11Z</time>
</trkpt>
<trkpt lat="35.247162" lon="138.789013">
 <ele>1100.1</ele>
 <time>2020-03-22T07:58:12Z</time>
</trkpt>
<trkpt lat="35.247050" lon="138.789013">
 <ele>1103.3</ele>
 <time>2020-03-22T07:58:12Z</time>
</trkpt>
<trkpt lat="35.246904" lon="138.789002">
 <ele>1107.7</ele>
 <time>2020-03-22T07:58:12Z</time>
</trkpt>
<trkpt lat="35.246698" lon="138.789013">
 <ele>1114.1</ele>
 <time>2020-03-22T07:58:12Z</time>
</trkpt>
<trkpt lat="35.246527" lon="138.789066">
 <ele>1120.7</ele>
 <time>2020-03-22T07:58:12Z</time>
</trkpt>
<trkpt lat="35.246398" lon="138.789098">
 <ele>1122.8</ele>
 <time>2020-03-22T07:58:12Z</time>
</trkpt>
<trkpt lat="35.246226" lon="138.789120">
 <ele>1129.1</ele>
 <time>2020-03-22T07:58:12Z</time>
</trkpt>
<trkpt lat="35.246072" lon="138.789120">
 <ele>1135.6</ele>
 <time>2020-03-22T07:58:13Z</time>
</trkpt>
<trkpt lat="35.245994" lon="138.789173">
 <ele>1136.8</ele>
 <time>2020-03-22T07:58:13Z</time>
</trkpt>
<trkpt lat="35.245874" lon="138.789163">
 <ele>1141.1</ele>
 <time>2020-03-22T07:58:13Z</time>
</trkpt>
<trkpt lat="35.245685" lon="138.789173">
 <ele>1146.4</ele>
 <time>2020-03-22T07:58:13Z</time>
</trkpt>
<trkpt lat="35.245342" lon="138.789131">
 <ele>1160.5</ele>
 <time>2020-03-22T07:58:13Z</time>
</trkpt>
<trkpt lat="35.245102" lon="138.789131">
 <ele>1172.4</ele>
 <time>2020-03-22T07:58:13Z</time>
</trkpt>
<trkpt lat="35.244870" lon="138.789152">
 <ele>1184</ele>
 <time>2020-03-22T07:58:13Z</time>
</trkpt>
<trkpt lat="35.244484" lon="138.789238">
 <ele>1200</ele>
 <time>2020-03-22T07:58:14Z</time>
</trkpt>
<trkpt lat="35.244183" lon="138.789334">
 <ele>1209.6</ele>
 <time>2020-03-22T07:58:14Z</time>
</trkpt>
<trkpt lat="35.243771" lon="138.789506">
 <ele>1224.3</ele>
 <time>2020-03-22T07:58:14Z</time>
</trkpt>
<trkpt lat="35.243505" lon="138.789624">
 <ele>1231.8</ele>
 <time>2020-03-22T07:58:14Z</time>
</trkpt>
<trkpt lat="35.243213" lon="138.789721">
 <ele>1240</ele>
 <time>2020-03-22T07:58:14Z</time>
</trkpt>
<trkpt lat="35.242853" lon="138.789839">
 <ele>1251.1</ele>
 <time>2020-03-22T07:58:14Z</time>
</trkpt>
<trkpt lat="35.242527" lon="138.789967">
 <ele>1271.6</ele>
 <time>2020-03-22T07:58:15Z</time>
</trkpt>
<trkpt lat="35.242209" lon="138.790107">
 <ele>1288.6</ele>
 <time>2020-03-22T07:58:15Z</time>
</trkpt>
<trkpt lat="35.241935" lon="138.790279">
 <ele>1305.7</ele>
 <time>2020-03-22T07:58:15Z</time>
</trkpt>
<trkpt lat="35.241737" lon="138.790407">
 <ele>1313.5</ele>
 <time>2020-03-22T07:58:15Z</time>
</trkpt>
<trkpt lat="35.241608" lon="138.790407">
 <ele>1321.1</ele>
 <time>2020-03-22T07:58:15Z</time>
</trkpt>
<trkpt lat="35.241540" lon="138.790418">
 <ele>1324.2</ele>
 <time>2020-03-22T07:58:15Z</time>
</trkpt>
<trkpt lat="35.241377" lon="138.790547">
 <ele>1333</ele>
 <time>2020-03-22T07:58:15Z</time>
</trkpt>
<trkpt lat="35.241171" lon="138.790643">
 <ele>1340</ele>
 <time>2020-03-22T07:58:16Z</time>
</trkpt>
<trkpt lat="35.240896" lon="138.790836">
 <ele>1352.3</ele>
 <time>2020-03-22T07:58:16Z</time>
</trkpt>
<trkpt lat="35.240699" lon="138.790997">
 <ele>1364</ele>
 <time>2020-03-22T07:58:16Z</time>
</trkpt>
<trkpt lat="35.240596" lon="138.791126">
 <ele>1370.7</ele>
 <time>2020-03-22T07:58:16Z</time>
</trkpt>
<trkpt lat="35.240450" lon="138.791276">
 <ele>1381.3</ele>
 <time>2020-03-22T07:58:16Z</time>
</trkpt>
<trkpt lat="35.240261" lon="138.791384">
 <ele>1391.7</ele>
 <time>2020-03-22T07:58:16Z</time>
</trkpt>
<trkpt lat="35.239969" lon="138.791437">
 <ele>1403.5</ele>
 <time>2020-03-22T07:58:16Z</time>
</trkpt>
<trkpt lat="35.239755" lon="138.791469">
 <ele>1410.6</ele>
 <time>2020-03-22T07:58:17Z</time>
</trkpt>
<trkpt lat="35.239557" lon="138.791534">
 <ele>1415.8</ele>
 <time>2020-03-22T07:58:17Z</time>
</trkpt>
<trkpt lat="35.239403" lon="138.791534">
 <ele>1421.7</ele>
 <time>2020-03-22T07:58:17Z</time>
</trkpt>
<trkpt lat="35.239231" lon="138.791491">
 <ele>1428.3</ele>
 <time>2020-03-22T07:58:17Z</time>
</trkpt>
<trkpt lat="35.239094" lon="138.791480">
 <ele>1434.1</ele>
 <time>2020-03-22T07:58:17Z</time>
</trkpt>
<trkpt lat="35.239025" lon="138.791502">
 <ele>1436</ele>
 <time>2020-03-22T07:58:17Z</time>
</trkpt>
<trkpt lat="35.238896" lon="138.791630">
 <ele>1440.2</ele>
 <time>2020-03-22T07:58:17Z</time>
</trkpt>
<trkpt lat="35.238707" lon="138.791684">
 <ele>1446.2</ele>
 <time>2020-03-22T07:58:17Z</time>
</trkpt>
<trkpt lat="35.238579" lon="138.791759">
 <ele>1451</ele>
 <time>2020-03-22T07:58:18Z</time>
</trkpt>
<trkpt lat="35.238476" lon="138.791931">
 <ele>1455.8</ele>
 <time>2020-03-22T07:58:18Z</time>
</trkpt>
<trkpt lat="35.238373" lon="138.792124">
 <ele>1461.2</ele>
 <time>2020-03-22T07:58:18Z</time>
</trkpt>
<trkpt lat="35.238313" lon="138.792349">
 <ele>1467.9</ele>
 <time>2020-03-22T07:58:18Z</time>
</trkpt>
<trkpt lat="35.238287" lon="138.792553">
 <ele>1472.3</ele>
 <time>2020-03-22T07:58:18Z</time>
</trkpt>
<trkpt lat="35.238261" lon="138.792660">
 <ele>1475</ele>
 <time>2020-03-22T07:58:18Z</time>
</trkpt>
<trkpt lat="35.238184" lon="138.792735">
 <ele>1479.7</ele>
 <time>2020-03-22T07:58:18Z</time>
</trkpt>
<trkpt lat="35.238167" lon="138.792821">
 <ele>1480.8</ele>
 <time>2020-03-22T07:58:18Z</time>
</trkpt>
<trkpt lat="35.238167" lon="138.792918">
 <ele>1481.7</ele>
 <time>2020-03-22T07:58:19Z</time>
</trkpt>
<trkpt lat="35.238089" lon="138.792961">
 <ele>1483.9</ele>
 <time>2020-03-22T07:58:19Z</time>
</trkpt>
<trkpt lat="35.238055" lon="138.793047">
 <ele>1485.5</ele>
 <time>2020-03-22T07:58:19Z</time>
</trkpt>
<trkpt lat="35.238098" lon="138.793529">
 <ele>1493.2</ele>
 <time>2020-03-22T07:58:19Z</time>
</trkpt>
<trkpt lat="35.238115" lon="138.793755">
 <ele>1498</ele>
 <time>2020-03-22T07:58:19Z</time>
</trkpt>
<trkpt lat="35.238089" lon="138.793883">
 <ele>1500.7</ele>
 <time>2020-03-22T07:58:19Z</time>
</trkpt>
<trkpt lat="35.238058" lon="138.794017">
 <ele>1504.2</ele>
 <time>2020-03-22T07:58:19Z</time>
</trkpt>
<trkpt lat="35.238089" lon="138.793883">
 <ele>1500.7</ele>
 <time>2020-03-22T07:58:20Z</time>
</trkpt>
<trkpt lat="35.238115" lon="138.793755">
 <ele>1498</ele>
 <time>2020-03-22T07:58:20Z</time>
</trkpt>
<trkpt lat="35.238098" lon="138.793529">
 <ele>1493.2</ele>
 <time>2020-03-22T07:58:20Z</time>
</trkpt>
<trkpt lat="35.238055" lon="138.793047">
 <ele>1485.5</ele>
 <time>2020-03-22T07:58:20Z</time>
</trkpt>
<trkpt lat="35.238089" lon="138.792961">
 <ele>1483.9</ele>
 <time>2020-03-22T07:58:20Z</time>
</trkpt>
<trkpt lat="35.238167" lon="138.792918">
 <ele>1481.7</ele>
 <time>2020-03-22T07:58:20Z</time>
</trkpt>
<trkpt lat="35.238167" lon="138.792821">
 <ele>1480.8</ele>
 <time>2020-03-22T07:58:21Z</time>
</trkpt>
<trkpt lat="35.238184" lon="138.792735">
 <ele>1479.7</ele>
 <time>2020-03-22T07:58:21Z</time>
</trkpt>
<trkpt lat="35.238261" lon="138.792660">
 <ele>1475</ele>
 <time>2020-03-22T07:58:21Z</time>
</trkpt>
<trkpt lat="35.238287" lon="138.792553">
 <ele>1472.3</ele>
 <time>2020-03-22T07:58:21Z</time>
</trkpt>
<trkpt lat="35.238313" lon="138.792349">
 <ele>1467.9</ele>
 <time>2020-03-22T07:58:21Z</time>
</trkpt>
<trkpt lat="35.238373" lon="138.792124">
 <ele>1461.2</ele>
 <time>2020-03-22T07:58:21Z</time>
</trkpt>
<trkpt lat="35.238476" lon="138.791931">
 <ele>1455.8</ele>
 <time>2020-03-22T07:58:21Z</time>
</trkpt>
<trkpt lat="35.238579" lon="138.791759">
 <ele>1451</ele>
 <time>2020-03-22T07:58:22Z</time>
</trkpt>
<trkpt lat="35.238707" lon="138.791684">
 <ele>1446.2</ele>
 <time>2020-03-22T07:58:22Z</time>
</trkpt>
<trkpt lat="35.238896" lon="138.791630">
 <ele>1440.2</ele>
 <time>2020-03-22T07:58:22Z</time>
</trkpt>
<trkpt lat="35.239025" lon="138.791502">
 <ele>1436</ele>
 <time>2020-03-22T07:58:22Z</time>
</trkpt>
<trkpt lat="35.239094" lon="138.791480">
 <ele>1434.1</ele>
 <time>2020-03-22T07:58:22Z</time>
</trkpt>
<trkpt lat="35.239231" lon="138.791491">
 <ele>1428.3</ele>
 <time>2020-03-22T07:58:22Z</time>
</trkpt>
<trkpt lat="35.239403" lon="138.791534">
 <ele>1421.7</ele>
 <time>2020-03-22T07:58:22Z</time>
</trkpt>
<trkpt lat="35.239557" lon="138.791534">
 <ele>1415.8</ele>
 <time>2020-03-22T07:58:23Z</time>
</trkpt>
<trkpt lat="35.239755" lon="138.791469">
 <ele>1410.6</ele>
 <time>2020-03-22T07:58:23Z</time>
</trkpt>
<trkpt lat="35.239969" lon="138.791437">
 <ele>1403.5</ele>
 <time>2020-03-22T07:58:23Z</time>
</trkpt>
<trkpt lat="35.240261" lon="138.791384">
 <ele>1391.7</ele>
 <time>2020-03-22T07:58:23Z</time>
</trkpt>
<trkpt lat="35.240450" lon="138.791276">
 <ele>1381.3</ele>
 <time>2020-03-22T07:58:23Z</time>
</trkpt>
<trkpt lat="35.240596" lon="138.791126">
 <ele>1370.7</ele>
 <time>2020-03-22T07:58:23Z</time>
</trkpt>
<trkpt lat="35.240699" lon="138.790997">
 <ele>1364</ele>
 <time>2020-03-22T07:58:24Z</time>
</trkpt>
<trkpt lat="35.240896" lon="138.790836">
 <ele>1352.3</ele>
 <time>2020-03-22T07:58:24Z</time>
</trkpt>
<trkpt lat="35.241171" lon="138.790643">
 <ele>1340</ele>
 <time>2020-03-22T07:58:24Z</time>
</trkpt>
<trkpt lat="35.241377" lon="138.790547">
 <ele>1333</ele>
 <time>2020-03-22T07:58:24Z</time>
</trkpt>
<trkpt lat="35.241540" lon="138.790418">
 <ele>1324.2</ele>
 <time>2020-03-22T07:58:24Z</time>
</trkpt>
<trkpt lat="35.241608" lon="138.790407">
 <ele>1321.1</ele>
 <time>2020-03-22T07:58:24Z</time>
</trkpt>
<trkpt lat="35.241737" lon="138.790407">
 <ele>1313.5</ele>
 <time>2020-03-22T07:58:24Z</time>
</trkpt>
<trkpt lat="35.241935" lon="138.790279">
 <ele>1305.7</ele>
 <time>2020-03-22T07:58:24Z</time>
</trkpt>
<trkpt lat="35.242209" lon="138.790107">
 <ele>1288.6</ele>
 <time>2020-03-22T07:58:25Z</time>
</trkpt>
<trkpt lat="35.242527" lon="138.789967">
 <ele>1271.6</ele>
 <time>2020-03-22T07:58:25Z</time>
</trkpt>
<trkpt lat="35.242853" lon="138.789839">
 <ele>1251.1</ele>
 <time>2020-03-22T07:58:25Z</time>
</trkpt>
<trkpt lat="35.243213" lon="138.789721">
 <ele>1240</ele>
 <time>2020-03-22T07:58:25Z</time>
</trkpt>
<trkpt lat="35.243505" lon="138.789624">
 <ele>1231.8</ele>
 <time>2020-03-22T07:58:25Z</time>
</trkpt>
<trkpt lat="35.243771" lon="138.789506">
 <ele>1224.3</ele>
 <time>2020-03-22T07:58:25Z</time>
</trkpt>
<trkpt lat="35.244183" lon="138.789334">
 <ele>1209.6</ele>
 <time>2020-03-22T07:58:26Z</time>
</trkpt>
<trkpt lat="35.244484" lon="138.789238">
 <ele>1200</ele>
 <time>2020-03-22T07:58:26Z</time>
</trkpt>
<trkpt lat="35.244870" lon="138.789152">
 <ele>1184</ele>
 <time>2020-03-22T07:58:26Z</time>
</trkpt>
<trkpt lat="35.245102" lon="138.789131">
 <ele>1172.4</ele>
 <time>2020-03-22T07:58:26Z</time>
</trkpt>
<trkpt lat="35.245342" lon="138.789131">
 <ele>1160.5</ele>
 <time>2020-03-22T07:58:26Z</time>
</trkpt>
<trkpt lat="35.245685" lon="138.789173">
 <ele>1146.4</ele>
 <time>2020-03-22T07:58:26Z</time>
</trkpt>
<trkpt lat="35.245874" lon="138.789163">
 <ele>1141.1</ele>
 <time>2020-03-22T07:58:26Z</time>
</trkpt>
<trkpt lat="35.245994" lon="138.789173">
 <ele>1136.8</ele>
 <time>2020-03-22T07:58:26Z</time>
</trkpt>
<trkpt lat="35.246072" lon="138.789120">
 <ele>1135.6</ele>
 <time>2020-03-22T07:58:27Z</time>
</trkpt>
<trkpt lat="35.246226" lon="138.789120">
 <ele>1129.1</ele>
 <time>2020-03-22T07:58:27Z</time>
</trkpt>
<trkpt lat="35.246398" lon="138.789098">
 <ele>1122.8</ele>
 <time>2020-03-22T07:58:27Z</time>
</trkpt>
<trkpt lat="35.246527" lon="138.789066">
 <ele>1120.7</ele>
 <time>2020-03-22T07:58:27Z</time>
</trkpt>
<trkpt lat="35.246698" lon="138.789013">
 <ele>1114.1</ele>
 <time>2020-03-22T07:58:27Z</time>
</trkpt>
<trkpt lat="35.246904" lon="138.789002">
 <ele>1107.7</ele>
 <time>2020-03-22T07:58:27Z</time>
</trkpt>
<trkpt lat="35.247050" lon="138.789013">
 <ele>1103.3</ele>
 <time>2020-03-22T07:58:27Z</time>
</trkpt>
<trkpt lat="35.247162" lon="138.789013">
 <ele>1100.1</ele>
 <time>2020-03-22T07:58:28Z</time>
</trkpt>
<trkpt lat="35.247248" lon="138.789013">
 <ele>1099.7</ele>
 <time>2020-03-22T07:58:28Z</time>
</trkpt>
<trkpt lat="35.247436" lon="138.789013">
 <ele>1099.2</ele>
 <time>2020-03-22T07:58:28Z</time>
</trkpt>
<trkpt lat="35.247565" lon="138.789002">
 <ele>1099.8</ele>
 <time>2020-03-22T07:58:28Z</time>
</trkpt>
<trkpt lat="35.247685" lon="138.789023">
 <ele>1100</ele>
 <time>2020-03-22T07:58:28Z</time>
</trkpt>
<trkpt lat="35.247848" lon="138.789045">
 <ele>1098.6</ele>
 <time>2020-03-22T07:58:28Z</time>
</trkpt>
<trkpt lat="35.248046" lon="138.789002">
 <ele>1095.6</ele>
 <time>2020-03-22T07:58:28Z</time>
</trkpt>
<trkpt lat="35.248269" lon="138.788970">
 <ele>1090.8</ele>
 <time>2020-03-22T07:58:29Z</time>
</trkpt>
<trkpt lat="35.248672" lon="138.788895">
 <ele>1079.7</ele>
 <time>2020-03-22T07:58:29Z</time>
</trkpt>
<trkpt lat="35.249007" lon="138.788841">
 <ele>1073.3</ele>
 <time>2020-03-22T07:58:29Z</time>
</trkpt>
<trkpt lat="35.249290" lon="138.788841">
 <ele>1069.3</ele>
 <time>2020-03-22T07:58:29Z</time>
</trkpt>
<trkpt lat="35.249368" lon="138.788884">
 <ele>1067.5</ele>
 <time>2020-03-22T07:58:29Z</time>
</trkpt>
<trkpt lat="35.249531" lon="138.788991">
 <ele>1062.6</ele>
 <time>2020-03-22T07:58:29Z</time>
</trkpt>
<trkpt lat="35.249814" lon="138.789163">
 <ele>1054.7</ele>
 <time>2020-03-22T07:58:29Z</time>
</trkpt>
<trkpt lat="35.249968" lon="138.789206">
 <ele>1051.9</ele>
 <time>2020-03-22T07:58:30Z</time>
</trkpt>
<trkpt lat="35.250140" lon="138.789238">
 <ele>1050.2</ele>
 <time>2020-03-22T07:58:30Z</time>
</trkpt>
<trkpt lat="35.250303" lon="138.789206">
 <ele>1048.7</ele>
 <time>2020-03-22T07:58:30Z</time>
</trkpt>
<trkpt lat="35.250501" lon="138.789109">
 <ele>1045.8</ele>
 <time>2020-03-22T07:58:30Z</time>
</trkpt>
<trkpt lat="35.250689" lon="138.788948">
 <ele>1044.4</ele>
 <time>2020-03-22T07:58:30Z</time>
</trkpt>
<trkpt lat="35.250784" lon="138.788905">
 <ele>1043.4</ele>
 <time>2020-03-22T07:58:30Z</time>
</trkpt>
<trkpt lat="35.250930" lon="138.788852">
 <ele>1040.5</ele>
 <time>2020-03-22T07:58:30Z</time>
</trkpt>
<trkpt lat="35.251101" lon="138.788766">
 <ele>1038.6</ele>
 <time>2020-03-22T07:58:31Z</time>
</trkpt>
<trkpt lat="35.251247" lon="138.788701">
 <ele>1037.6</ele>
 <time>2020-03-22T07:58:31Z</time>
</trkpt>
<trkpt lat="35.251385" lon="138.788519">
 <ele>1034.4</ele>
 <time>2020-03-22T07:58:31Z</time>
</trkpt>
<trkpt lat="35.251462" lon="138.788347">
 <ele>1030.6</ele>
 <time>2020-03-22T07:58:31Z</time>
</trkpt>
<trkpt lat="35.251496" lon="138.788133">
 <ele>1026.1</ele>
 <time>2020-03-22T07:58:31Z</time>
</trkpt>
<trkpt lat="35.251530" lon="138.787940">
 <ele>1022.3</ele>
 <time>2020-03-22T07:58:31Z</time>
</trkpt>
<trkpt lat="35.251548" lon="138.787768">
 <ele>1018.5</ele>
 <time>2020-03-22T07:58:31Z</time>
</trkpt>
<trkpt lat="35.251599" lon="138.787661">
 <ele>1015.6</ele>
 <time>2020-03-22T07:58:32Z</time>
</trkpt>
<trkpt lat="35.251616" lon="138.787564">
 <ele>1014.5</ele>
 <time>2020-03-22T07:58:32Z</time>
</trkpt>
<trkpt lat="35.251633" lon="138.787414">
 <ele>1013.6</ele>
 <time>2020-03-22T07:58:32Z</time>
</trkpt>
<trkpt lat="35.251642" lon="138.787274">
 <ele>1012.5</ele>
 <time>2020-03-22T07:58:32Z</time>
</trkpt>
<trkpt lat="35.251754" lon="138.787146">
 <ele>1011.6</ele>
 <time>2020-03-22T07:58:32Z</time>
</trkpt>
<trkpt lat="35.251891" lon="138.787135">
 <ele>1009.3</ele>
 <time>2020-03-22T07:58:32Z</time>
</trkpt>
<trkpt lat="35.252071" lon="138.787135">
 <ele>1004.6</ele>
 <time>2020-03-22T07:58:33Z</time>
</trkpt>
<trkpt lat="35.252251" lon="138.787146">
 <ele>1002.8</ele>
 <time>2020-03-22T07:58:33Z</time>
</trkpt>
<trkpt lat="35.252354" lon="138.787081">
 <ele>1001.2</ele>
 <time>2020-03-22T07:58:33Z</time>
</trkpt>
<trkpt lat="35.252457" lon="138.786942">
 <ele>998.4</ele>
 <time>2020-03-22T07:58:33Z</time>
</trkpt>
<trkpt lat="35.252457" lon="138.786781">
 <ele>994.1</ele>
 <time>2020-03-22T07:58:33Z</time>
</trkpt>
<trkpt lat="35.252466" lon="138.786631">
 <ele>988.7</ele>
 <time>2020-03-22T07:58:33Z</time>
</trkpt>
<trkpt lat="35.252466" lon="138.786502">
 <ele>987.4</ele>
 <time>2020-03-22T07:58:33Z</time>
</trkpt>
<trkpt lat="35.252509" lon="138.786373">
 <ele>986.4</ele>
 <time>2020-03-22T07:58:34Z</time>
</trkpt>
<trkpt lat="35.252603" lon="138.786309">
 <ele>985.5</ele>
 <time>2020-03-22T07:58:34Z</time>
</trkpt>
<trkpt lat="35.252689" lon="138.786191">
 <ele>983.9</ele>
 <time>2020-03-22T07:58:34Z</time>
</trkpt>
<trkpt lat="35.252724" lon="138.786073">
 <ele>980.8</ele>
 <time>2020-03-22T07:58:34Z</time>
</trkpt>
<trkpt lat="35.252724" lon="138.786019">
 <ele>980.7</ele>
 <time>2020-03-22T07:58:34Z</time>
</trkpt>
<trkpt lat="35.252869" lon="138.785966">
 <ele>979</ele>
 <time>2020-03-22T07:58:34Z</time>
</trkpt>
<trkpt lat="35.252964" lon="138.785848">
 <ele>976.7</ele>
 <time>2020-03-22T07:58:34Z</time>
</trkpt>
<trkpt lat="35.253041" lon="138.785687">
 <ele>972.9</ele>
 <time>2020-03-22T07:58:34Z</time>
</trkpt>
<trkpt lat="35.253161" lon="138.785579">
 <ele>968.1</ele>
 <time>2020-03-22T07:58:35Z</time>
</trkpt>
<trkpt lat="35.253290" lon="138.785612">
 <ele>965.7</ele>
 <time>2020-03-22T07:58:35Z</time>
</trkpt>
<trkpt lat="35.253453" lon="138.785697">
 <ele>961.5</ele>
 <time>2020-03-22T07:58:35Z</time>
</trkpt>
<trkpt lat="35.253548" lon="138.785687">
 <ele>956.2</ele>
 <time>2020-03-22T07:58:35Z</time>
</trkpt>
<trkpt lat="35.253651" lon="138.785708">
 <ele>952.6</ele>
 <time>2020-03-22T07:58:35Z</time>
</trkpt>
<trkpt lat="35.253754" lon="138.785654">
 <ele>949.5</ele>
 <time>2020-03-22T07:58:35Z</time>
</trkpt>
<trkpt lat="35.253968" lon="138.785536">
 <ele>940.6</ele>
 <time>2020-03-22T07:58:35Z</time>
</trkpt>
<trkpt lat="35.254131" lon="138.785408">
 <ele>933.6</ele>
 <time>2020-03-22T07:58:36Z</time>
</trkpt>
<trkpt lat="35.254337" lon="138.785236">
 <ele>923.3</ele>
 <time>2020-03-22T07:58:36Z</time>
</trkpt>
<trkpt lat="35.254723" lon="138.784914">
 <ele>908.1</ele>
 <time>2020-03-22T07:58:36Z</time>
</trkpt>
<trkpt lat="35.254955" lon="138.784732">
 <ele>898.9</ele>
 <time>2020-03-22T07:58:36Z</time>
</trkpt>
<trkpt lat="35.254998" lon="138.784614">
 <ele>893.5</ele>
 <time>2020-03-22T07:58:36Z</time>
</trkpt>
<trkpt lat="35.255238" lon="138.784442">
 <ele>885.3</ele>
 <time>2020-03-22T07:58:36Z</time>
</trkpt>
<trkpt lat="35.255427" lon="138.784238">
 <ele>879.6</ele>
 <time>2020-03-22T07:58:37Z</time>
</trkpt>
<trkpt lat="35.255556" lon="138.784195">
 <ele>877.7</ele>
 <time>2020-03-22T07:58:37Z</time>
</trkpt>
<trkpt lat="35.255745" lon="138.784088">
 <ele>874.9</ele>
 <time>2020-03-22T07:58:37Z</time>
</trkpt>
<trkpt lat="35.255985" lon="138.783831">
 <ele>870.7</ele>
 <time>2020-03-22T07:58:37Z</time>
</trkpt>
<trkpt lat="35.256157" lon="138.783723">
 <ele>869</ele>
 <time>2020-03-22T07:58:37Z</time>
</trkpt>
</trkseg>
</trk>
</gpx>
